Temp
25 27 30 31 30 36 33 35 34 34 31 37 37 35 34 35 32 30 31 31 30 28 25 23 22 22 22 23 23 23 23 22 22 22 21 21 21 21 21 21 21 22 21 21 21 21 21 21 21
31 30 31 34 29 31 34 36 34 36 37 37 37 34 32 32 34 33 32 31 30 28 26 24 22 22 23 23 23 23 23 22 22 21 21 21 21 21 21 21 22 22 22 22 21 21 21 21 21
29 30 35 36 36 34 33 36 36 36 37 35 34 37 35 33 33 33 32 30 30 29 27 24 23 22 23 22 23 23 23 22 22 21 21 21 21 21 21 21 21 21 22 21 21 21 21 21 21
32 34 35 34 35 37 37 36 37 36 37 36 36 35 34 32 33 32 31 30 30 29 28 24 23 22 22 22 22 22 22 22 22 21 21 21 21 21 21 21 21 21 21 22 22 21 21 22 21
33 36 36 37 36 37 38 38 38 37 37 37 37 34 33 32 32 31 31 31 31 30 27 23 23 22 22 22 22 21 21 21 21 21 21 21 21 21 21 21 21 21 21 21 21 21 22 22 21
36 38 38 37 36 37 38 38 38 37 36 36 35 35 32 31 31 31 31 31 31 30 28 24 23 22 22 21 21 21 21 21 21 21 21 21 21 21 21 21 21 21 21 21 21 21 21 21 21
37 38 38 37 36 37 37 38 38 37 36 36 37 34 33 33 31 31 31 31 31 30 29 25 23 22 21 21 21 21 21 21 21 21 21 21 21 21 21 21 21 21 21 21 21 21 21 21 21
38 38 38 37 37 36 38 38 38 38 36 37 38 33 32 33 31 31 31 31 31 30 29 26 25 24 23 23 21 21 21 21 21 21 21 21 21 21 22 22 22 22 22 22 22 22 21 21 21
40 38 37 37 37 37 38 38 38 37 37 37 37 37 35 32 32 32 32 31 30 30 29 28 26 25 25 25 23 21 21 22 21 21 21 21 23 24 20 23 22 22 22 21 21 22 22 21 21
39 39 37 38 39 38 38 38 38 37 37 36 35 35 33 32 32 32 32 32 31 30 30 29 28 28 26 27 25 23 24 24 23 23 22 22 24 20 22 22 22 22 22 22 22 21 21 21 24
39 38 39 39 38 39 39 39 39 38 37 37 36 35 34 33 32 33 32 32 31 30 30 30 29 28 28 28 27 26 26 26 25 24 23 22 23 24 24 23 22 22 22 22 23 23 23 24 25
38 39 39 39 39 39 38 40 39 39 38 39 38 36 34 34 34 33 33 32 31 29 30 30 28 28 27 28 27 28 27 26 26 24 24 23 23 24 24 24 23 22 23 23 24 23 23 24 23
39 40 40 40 40 40 39 39 39 39 39 38 38 36 35 34 34 34 33 32 31 30 29 29 28 28 27 27 28 28 27 25 26 25 25 25 24 25 23 24 23 23 23 23 23 24 24 24 24
39 40 40 40 40 40 39 39 39 39 38 37 37 36 36 35 35 34 34 33 31 30 29 29 28 28 25 24 25 26 26 27 24 25 25 25 25 26 25 24 23 23 22 23 22 22 23 24 24
39 39 40 40 40 40 40 38 38 38 38 37 37 37 37 36 35 34 33 33 31 31 30 29 28 28 26 25 25 25 26 27 26 26 26 25 25 26 25 23 23 23 23 23 22 22 22 23 24
39 39 38 40 40 39 39 38 37 38 38 38 37 37 36 36 35 34 34 33 32 31 30 29 29 29 27 27 26 26 27 27 26 26 26 25 24 24 23 24 23 23 23 23 22 23 22 22 24
39 38 38 39 40 39 39 38 38 38 38 38 37 37 36 36 36 34 34 33 32 31 30 29 29 28 28 26 26 26 27 27 26 26 26 25 25 25 23 23 25 23 23 22 23 23 23 22 23
38 38 38 38 39 39 39 39 39 38 38 38 38 37 36 35 36 35 34 33 32 32 30 29 29 27 27 27 25 26 27 27 27 26 26 25 25 26 23 25 26 24 24 24 25 24 24 24 24
38 38 38 39 39 38 39 39 39 37 37 37 38 37 38 37 36 35 34 34 32 32 30 29 28 27 27 27 27 26 27 27 27 27 26 26 25 26 24 24 26 25 25 24 24 24 24 25 25
38 38 39 39 39 38 39 38 39 38 37 37 37 37 37 36 36 36 35 34 33 31 31 29 28 27 25 27 27 28 28 28 28 27 26 26 26 25 24 24 26 26 26 25 24 24 23 24 26
39 39 39 38 39 39 39 32 37 36 36 37 37 37 37 35 35 35 35 34 34 33 31 30 29 27 26 26 27 27 27 27 28 27 26 26 26 25 25 24 24 25 25 25 25 25 24 25 26
38 40 39 38 38 37 39 31 36 37 37 36 37 37 36 34 35 35 36 35 34 33 32 30 29 28 26 26 26 27 28 28 28 27 27 27 26 25 26 25 24 24 24 26 25 25 24 24 25
38 39 39 39 38 39 39 31 23 38 37 37 37 37 37 36 35 33 34 35 33 33 32 31 29 28 27 27 25 26 26 26 26 27 27 26 27 26 26 26 25 24 24 25 26 25 24 26 26
39 38 39 39 39 37 37 38 25 32 37 37 37 36 36 36 36 34 32 32 32 31 31 30 29 27 26 26 25 24 24 25 24 25 26 26 27 27 26 25 24 24 24 24 24 24 25 24 25
39 38 37 37 37 33 37 38 27 37 38 37 37 36 36 36 35 35 33 31 30 30 30 29 28 27 26 25 24 24 22 23 21 23 24 26 27 25 26 26 24 24 24 24 24 24 24 24 25
39 39 38 35 36 36 39 38 36 38 38 37 36 37 36 36 35 34 33 31 30 30 29 29 27 26 25 24 23 23 21 21 21 21 23 25 27 28 27 26 25 25 25 24 24 23 23 24 25
39 38 41 39 40 39 37 38 38 38 37 37 36 36 36 35 36 35 34 32 31 30 29 28 27 26 25 26 24 21 20 20 21 21 22 24 26 27 25 24 25 25 25 24 24 24 23 24 24
39 40 39 39 34 35 32 35 36 36 36 36 36 36 36 35 35 35 34 32 31 30 29 28 27 26 26 24 22 20 19 20 21 21 22 24 25 26 24 25 25 25 25 24 24 24 24 24 25
39 39 39 38 38 36 35 34 36 37 37 37 36 36 36 36 35 34 33 32 31 30 29 28 27 27 26 24 23 21 19 20 20 22 23 24 25 25 24 24 24 24 25 24 23 24 25 24 24
40 38 37 38 34 36 37 35 39 38 37 36 36 36 36 35 35 34 33 32 31 30 28 28 27 27 27 25 23 21 21 21 22 24 23 24 25 25 24 24 24 25 24 24 24 24 25 24 24
Height
768 768 767 764 782 755 781 771 758 764 771 744 744 752 761 754 770 797 776 782 789 796 804 811 813 816 819 823 825 828 830 833 835 836 838 839 840 842 844 846 846 847 847 849 849 850 849 852 851
767 767 764 755 793 796 781 756 768 756 747 743 745 754 767 770 762 769 777 783 791 797 805 811 815 817 821 824 827 829 832 834 836 838 840 841 843 844 846 847 848 849 849 851 852 852 853 853 854
768 767 755 754 763 786 786 756 756 753 744 752 757 746 755 769 769 773 778 786 792 799 805 810 815 819 822 825 828 831 833 835 837 840 841 843 844 846 847 848 850 850 851 853 853 854 855 855 856
764 758 752 769 776 760 759 756 748 752 747 749 749 762 763 770 772 775 782 788 793 801 805 811 815 820 824 826 829 832 834 837 838 841 842 844 844 846 847 848 849 850 852 853 854 856 856 858 857
762 750 761 764 767 757 749 746 743 751 753 751 750 766 772 773 776 779 785 789 793 799 806 812 817 821 825 827 830 832 835 838 840 841 842 844 844 845 847 848 849 850 852 853 855 856 857 857 858
758 743 763 775 771 758 748 744 745 751 754 755 761 762 776 777 779 783 787 790 795 799 806 814 819 823 826 828 831 834 836 837 839 841 841 842 843 844 845 846 848 850 852 853 854 856 857 858 859
758 751 767 766 770 766 757 743 749 754 756 757 752 769 775 778 782 786 789 791 796 802 805 816 821 825 828 830 832 834 836 838 839 840 841 842 844 845 845 846 847 849 851 853 854 855 857 858 858
749 749 767 765 774 778 754 749 749 751 762 752 749 773 781 776 783 786 790 793 797 804 808 815 821 825 828 831 832 835 837 838 838 838 839 842 847 846 847 849 847 849 849 851 852 853 854 855 856
742 761 779 773 771 770 753 755 751 750 753 755 756 755 764 775 781 785 789 793 799 804 807 813 819 823 827 829 832 834 836 837 837 837 838 843 843 840 834 848 846 846 847 848 850 851 851 853 853
750 761 774 757 751 759 752 753 754 751 756 759 763 762 769 776 780 783 787 791 797 803 807 810 815 819 824 826 829 834 835 836 836 835 835 840 840 824 840 845 845 843 845 846 848 849 850 850 850
752 768 756 755 754 750 751 749 747 752 756 754 757 765 771 775 779 782 786 790 795 802 804 807 813 817 821 823 827 830 832 833 833 833 834 836 839 839 841 842 840 841 842 845 846 847 848 847 847
764 753 752 750 749 752 756 745 748 748 752 747 748 759 768 774 777 780 785 789 796 803 805 807 812 816 820 821 824 825 827 830 832 833 833 833 835 836 838 837 837 839 840 842 843 844 845 845 846
759 750 745 743 743 745 746 752 751 749 742 747 748 759 765 770 775 778 783 788 796 801 806 809 811 815 820 822 823 824 826 828 829 831 831 832 833 833 835 836 838 839 839 840 842 842 843 844 845
750 750 746 742 742 741 752 750 749 746 745 749 751 757 762 767 772 776 780 785 794 799 803 807 811 814 820 822 824 824 826 825 826 829 831 832 832 833 832 835 838 838 838 838 838 841 842 842 843
749 760 746 743 744 749 745 756 756 746 745 751 752 755 757 764 768 774 779 784 792 797 801 805 809 812 817 820 823 825 824 824 826 829 830 831 832 833 834 834 837 837 837 837 836 838 839 840 840
759 756 769 748 747 746 751 769 754 746 747 749 752 755 758 762 765 772 777 781 787 793 797 803 805 808 813 817 820 821 822 823 825 828 828 830 830 832 833 834 834 833 835 833 835 835 836 838 837
759 774 774 762 746 750 752 764 747 743 746 749 752 754 758 760 763 769 773 779 782 789 794 799 803 807 810 814 817 819 819 821 823 825 826 826 828 830 832 832 832 832 833 833 832 833 834 834 835
770 770 766 770 752 751 753 752 743 745 747 749 748 750 757 761 760 765 770 773 782 784 791 796 800 805 808 811 815 816 817 818 818 821 823 825 826 828 831 831 830 831 830 831 830 830 831 831 833
763 769 770 756 750 758 754 754 744 749 749 752 748 749 747 751 757 760 767 769 779 781 788 793 797 800 805 807 810 812 812 814 815 818 819 821 823 825 827 829 828 829 828 829 830 830 830 829 829
763 768 762 750 749 754 752 755 742 748 750 751 753 752 751 754 756 758 762 765 770 778 781 789 793 798 801 804 806 808 809 809 810 813 816 818 820 822 823 825 825 826 825 827 828 828 829 828 826
761 761 757 763 750 743 750 783 755 753 750 750 749 749 750 755 758 757 759 762 765 770 777 783 789 793 797 800 803 805 806 806 807 809 811 813 816 818 819 821 822 823 824 823 825 826 826 826 824
766 738 752 759 766 773 741 815 765 754 753 753 748 750 754 757 754 756 754 758 762 767 773 780 785 789 793 796 797 798 798 800 800 803 807 809 811 811 816 816 819 820 821 819 822 823 823 823 823
758 745 751 752 759 751 748 807 836 751 758 754 751 751 750 753 754 759 757 754 761 765 770 776 782 786 788 791 793 793 794 796 798 799 802 806 807 810 811 813 815 816 817 818 818 820 820 819 820
743 754 750 748 751 776 760 758 835 785 755 752 750 754 752 753 752 759 761 761 764 768 772 776 780 783 786 789 789 790 788 789 794 795 799 801 803 804 808 809 811 811 812 814 815 816 817 817 817
750 759 777 780 776 808 758 758 814 752 743 747 751 754 753 751 755 756 762 765 769 772 774 777 779 782 785 787 787 785 787 788 785 797 799 797 797 801 803 804 806 807 808 810 811 810 812 814 814
748 747 766 797 789 788 746 765 762 737 737 744 748 749 750 753 754 757 763 768 770 773 775 777 780 782 783 784 782 782 783 786 789 793 798 795 793 795 798 801 802 803 804 806 806 806 806 807 809
743 760 728 748 734 755 763 747 740 735 744 746 751 750 753 755 754 757 762 766 770 773 775 777 780 782 782 781 780 778 778 780 785 791 794 793 791 793 795 797 797 797 798 800 801 802 802 803 805
737 725 756 744 801 793 801 780 762 755 752 751 753 752 753 753 755 758 763 767 770 772 775 777 779 781 781 782 780 776 772 774 785 789 790 790 789 790 791 791 791 792 794 795 797 798 798 800 801
746 748 739 748 756 775 782 787 750 745 744 750 754 749 751 752 756 760 765 769 772 774 776 778 779 780 781 782 782 781 781 780 783 786 787 787 787 786 788 787 786 787 789 791 792 793 793 795 797
724 740 747 753 783 769 756 773 731 738 741 745 749 750 750 753 758 762 766 769 773 775 777 778 779 779 779 781 783 783 784 784 785 784 784 783 783 786 785 784 784 783 784 785 787 788 787 790 792
Wind_Speed
5 3 5 6 4 1 8 9 18 13 3 4 9 6 4 12 12 6 22 21 24 27 24 19 19 20 19 18 17 17 13 11 10 10 11 11 12 11 11 11 11 11 11 11 11 12 13 15 15
3 3 8 5 2 2 8 4 7 11 10 8 4 11 1 10 12 14 21 23 26 26 25 20 19 20 20 18 16 15 15 14 11 11 10 10 11 11 10 9 10 10 10 10 10 12 12 13 14
5 6 5 5 3 9 8 10 11 9 7 6 2 9 11 9 7 17 18 26 25 24 24 22 21 19 19 18 16 15 14 14 12 11 10 9 9 10 10 9 9 9 9 9 9 10 12 12 13
6 7 5 4 11 9 13 8 8 9 8 5 6 10 9 6 11 9 24 26 24 23 23 22 22 18 17 17 17 16 14 13 12 11 10 9 8 7 8 7 7 7 7 9 8 8 9 10 11
11 7 8 8 10 10 12 12 8 6 9 8 6 11 10 7 9 20 25 25 23 23 23 21 22 19 16 16 16 15 15 13 11 10 10 9 8 7 6 5 5 5 6 6 6 7 7 9 8
8 4 4 9 8 7 9 8 4 8 6 7 4 13 9 10 17 22 23 22 21 21 21 20 21 19 16 15 15 15 14 14 12 10 10 10 9 8 7 6 6 6 6 6 5 7 7 5 5
7 7 6 10 6 11 11 5 11 5 1 12 3 11 8 12 19 20 21 20 19 17 19 18 18 16 15 15 15 14 14 13 12 11 11 11 10 10 9 9 8 8 8 8 7 8 9 9 8
8 5 11 11 10 10 9 8 6 10 13 4 6 5 10 17 19 20 19 18 18 16 17 17 17 15 14 14 15 15 14 13 12 12 13 12 10 13 9 8 7 8 9 10 11 10 11 11 11
10 1 8 9 11 9 6 3 7 2 6 3 5 8 19 21 20 21 20 18 17 15 16 17 16 16 14 14 14 14 13 13 12 13 14 11 12 17 9 12 10 6 8 9 10 10 10 10 12
12 8 9 6 6 6 9 4 5 5 6 10 6 9 17 20 20 21 20 20 19 17 16 16 17 17 15 14 14 13 13 12 13 15 14 12 16 5 13 12 8 7 7 9 10 10 11 11 13
3 7 3 6 9 9 6 4 4 6 7 7 8 12 15 17 18 19 19 19 19 18 17 16 15 15 15 13 13 12 14 12 14 16 16 14 12 10 9 11 6 8 10 10 11 11 11 13 12
7 2 1 3 2 4 7 7 7 4 6 6 6 14 15 15 15 18 18 17 17 18 15 14 16 15 14 13 13 13 15 14 12 14 14 13 10 10 8 7 5 8 10 7 12 10 14 11 11
9 2 4 2 2 4 3 5 8 6 3 2 9 13 16 15 16 16 16 17 17 18 17 15 14 14 14 12 12 12 12 15 14 14 14 12 12 11 10 9 6 6 9 9 7 9 11 10 10
4 7 6 3 4 4 6 9 2 8 3 2 7 12 14 14 15 15 16 16 18 18 19 18 17 14 13 15 9 10 10 10 12 10 9 10 13 8 8 6 10 10 7 8 10 8 11 12 15
6 10 5 7 3 6 7 16 4 7 3 5 5 8 11 13 16 15 14 15 18 18 18 18 17 17 16 15 14 12 15 14 10 10 9 9 7 9 6 6 9 9 10 12 11 12 12 12 13
8 8 6 7 4 5 7 3 9 4 3 4 5 7 8 11 15 15 16 16 19 17 17 18 17 18 18 16 15 15 14 11 10 11 10 12 10 9 7 9 10 11 7 9 12 9 11 12 11
8 5 3 3 3 6 5 9 11 4 1 2 7 10 8 10 13 16 16 17 17 18 18 18 18 13 17 17 16 15 13 13 11 12 11 12 12 9 11 9 7 6 7 8 8 7 10 10 10
3 6 2 2 6 6 9 6 14 7 3 4 5 6 9 7 13 15 18 18 18 20 19 19 18 19 17 16 17 17 16 15 14 13 14 13 14 9 10 11 10 7 9 8 8 7 10 10 7
9 8 8 2 3 10 9 3 4 4 3 4 0 3 2 12 12 12 17 19 20 20 20 20 19 19 20 19 18 18 19 17 16 15 17 15 15 11 10 12 11 9 10 6 6 7 6 8 7
10 13 13 3 3 9 11 9 7 5 4 3 3 1 2 2 5 8 14 18 23 22 22 21 20 20 20 19 19 18 17 18 18 16 14 13 13 11 12 12 12 10 7 6 7 8 7 9 8
15 14 9 6 3 14 10 17 9 8 7 5 5 2 7 3 0 4 10 16 19 22 22 21 21 21 21 21 18 17 16 16 13 16 18 15 15 14 13 13 14 10 10 10 9 9 9 11 9
15 4 3 8 11 11 4 4 3 12 10 6 5 5 1 6 5 3 5 12 14 18 19 18 18 19 21 21 22 20 21 20 18 16 14 10 8 10 13 14 12 14 13 15 9 11 10 10 9
13 5 10 12 12 18 10 10 12 10 13 10 6 5 6 4 7 2 2 3 8 12 15 15 16 17 18 19 24 22 25 23 19 14 15 11 8 9 11 13 13 15 15 18 12 10 10 12 12
12 10 14 14 15 10 8 3 4 11 10 10 9 5 3 7 4 6 6 4 7 9 9 10 11 14 15 17 19 24 24 25 22 17 9 10 13 11 11 15 14 14 17 17 15 13 12 12 12
11 16 13 12 10 3 19 14 15 7 12 10 7 8 4 5 5 7 6 6 5 6 8 7 7 9 10 13 18 22 22 21 14 11 13 14 10 10 13 13 12 15 17 16 15 18 18 14 14
15 16 13 4 6 8 13 1 6 11 14 10 6 9 4 6 6 7 8 8 8 8 7 5 5 5 5 10 15 20 17 20 22 11 12 15 12 13 8 9 11 14 15 16 16 16 17 17 16
15 6 18 14 10 9 5 2 12 12 12 10 8 7 7 8 7 8 8 9 8 7 6 6 6 5 5 8 12 14 20 19 18 14 11 11 11 12 9 13 13 14 16 17 19 18 19 20 17
17 15 6 6 1 10 7 17 7 11 10 10 8 7 8 8 9 9 8 8 7 7 6 4 4 5 1 2 3 7 10 15 16 7 9 8 10 10 13 15 15 14 16 17 17 18 19 20 18
11 12 10 7 11 8 3 4 8 8 9 8 7 4 7 8 9 9 8 8 7 5 4 2 3 4 3 3 2 1 6 12 11 12 7 8 9 10 15 18 17 16 17 17 19 20 18 17 20
12 7 15 9 4 14 13 9 8 10 8 9 8 5 7 8 8 8 8 7 7 4 3 2 1 4 5 6 5 6 6 12 12 15 13 7 12 13 16 16 17 17 17 18 18 18 17 17 20
Wind_Direction
171 195 242 255 279 188 46 34 49 44 307 7 87 22 116 44 44 89 135 153 146 147 152 151 154 158 162 166 166 173 171 157 135 124 115 110 113 118 116 115 110 108 108 108 109 116 114 119 117
213 272 237 268 236 171 84 64 101 58 63 92 86 77 63 66 56 118 146 144 150 148 151 152 156 162 166 167 165 161 158 155 147 135 126 119 117 118 118 116 118 114 111 114 118 120 123 124 125
255 271 268 299 33 54 67 42 82 66 34 92 16 50 16 66 96 134 138 148 151 150 153 155 157 163 165 167 169 167 162 159 156 144 137 134 130 124 121 121 119 120 124 120 122 127 129 127 125
255 206 234 243 68 52 80 74 102 119 111 41 340 73 109 32 129 141 146 151 149 152 157 162 161 159 160 163 170 174 173 167 165 155 153 151 152 143 138 134 134 135 132 139 130 130 135 128 133
252 255 257 95 69 76 71 58 28 92 70 47 333 72 76 98 124 136 149 155 149 157 143 157 168 165 163 165 166 170 171 172 172 168 165 166 171 168 164 159 164 168 155 149 152 157 150 145 136
268 249 9 74 93 88 80 85 51 68 62 100 55 88 67 117 138 146 151 156 156 155 150 163 173 174 178 174 170 171 173 176 182 186 186 189 193 196 203 210 200 204 197 182 183 179 181 179 189
279 308 62 83 98 72 71 36 13 88 41 55 147 62 107 137 140 150 155 154 155 162 145 161 170 175 181 184 184 185 186 187 194 200 207 210 215 222 222 208 205 214 224 223 220 221 229 231 225
283 279 80 48 68 57 74 66 11 11 64 53 324 109 158 144 154 155 160 157 152 165 153 164 175 180 188 193 191 198 197 203 205 211 219 221 225 232 226 240 232 222 234 242 244 236 237 235 234
255 297 61 60 67 97 85 53 64 7 95 13 69 24 128 149 160 160 164 162 155 174 167 173 177 183 191 192 197 194 200 207 213 221 225 234 241 234 217 238 226 227 236 246 246 234 225 225 232
270 66 67 358 63 81 104 354 29 297 102 132 96 92 131 155 166 167 173 163 174 178 180 181 179 182 188 195 176 196 207 214 221 229 239 235 248 282 176 222 226 223 237 242 229 220 220 225 230
8 58 21 87 36 345 5 177 109 309 61 41 136 142 154 163 172 175 178 175 182 179 187 182 182 182 189 198 187 196 209 213 219 221 239 246 264 274 221 236 224 223 245 237 229 229 233 227 229
253 163 37 9 75 319 320 356 327 55 40 16 114 150 162 171 175 179 182 179 182 183 193 179 186 183 198 194 200 206 205 209 214 212 234 243 248 247 242 236 228 228 223 232 237 228 233 220 232
261 37 212 185 297 357 357 295 7 338 104 113 120 154 167 176 175 182 183 179 185 184 194 198 188 184 197 214 206 224 188 212 221 230 226 240 242 240 234 240 239 242 232 215 247 230 228 217 221
49 275 274 241 307 314 336 311 22 100 60 126 149 166 171 179 178 180 186 177 186 190 193 196 204 193 200 215 229 221 237 225 241 198 246 231 255 231 220 232 248 250 232 227 226 232 223 222 218
249 268 273 213 360 317 327 261 162 65 168 130 175 179 175 179 179 178 189 184 185 192 193 203 201 202 203 208 217 224 228 238 216 239 235 236 227 243 242 226 241 236 236 229 239 225 225 217 222
253 245 262 101 342 98 267 337 107 127 140 193 153 164 190 179 182 185 184 190 176 200 192 202 203 204 200 210 209 221 227 232 226 238 220 238 233 256 250 241 238 228 221 228 225 229 215 219 234
190 268 349 167 119 307 234 321 124 95 295 305 147 161 188 183 189 185 197 197 189 191 197 199 203 210 202 207 214 221 230 226 224 230 237 234 233 236 245 261 244 257 249 245 231 225 221 208 224
103 302 175 298 45 294 286 283 101 80 334 143 138 152 162 213 198 201 201 196 199 193 203 202 200 205 211 204 213 219 224 227 228 214 227 238 240 237 241 248 252 258 244 256 243 221 248 210 212
324 287 278 219 72 290 294 311 68 63 161 151 219 177 175 176 192 209 207 207 194 217 194 209 205 202 208 209 212 219 220 221 224 232 235 234 242 245 237 239 245 250 234 239 247 239 235 259 230
244 254 265 169 196 261 282 310 83 138 99 82 70 171 112 145 233 209 215 210 193 214 197 206 210 206 208 215 221 227 223 229 223 223 231 232 236 231 230 230 245 227 261 217 231 243 253 254 251
238 251 309 337 270 258 257 350 132 132 150 141 129 131 98 118 95 233 209 230 212 209 204 208 209 211 209 218 217 225 237 237 239 220 216 220 229 232 226 232 231 256 241 235 222 237 238 252 258
270 27 269 264 263 280 224 46 286 149 148 162 156 64 16 34 69 314 255 199 221 213 209 207 211 215 218 217 231 221 222 228 224 212 239 226 213 215 235 230 232 240 236 259 223 242 238 252 245
277 349 290 275 261 259 192 105 299 188 141 146 88 109 83 327 81 17 304 272 200 196 198 202 211 221 222 221 229 229 225 227 224 216 215 215 224 235 240 237 229 229 233 248 246 248 227 244 253
268 285 253 244 248 275 312 257 161 270 98 115 115 114 73 85 22 65 26 89 169 170 180 185 198 212 222 232 238 237 243 226 222 225 213 209 230 226 232 234 230 231 230 239 239 232 243 247 269
233 252 247 228 225 89 252 268 177 153 90 91 107 116 85 60 59 84 76 108 138 173 194 192 196 211 227 241 244 243 241 231 229 248 243 234 211 228 248 232 222 232 231 235 235 234 242 241 243
214 253 275 271 256 149 265 257 92 95 101 97 111 107 112 83 97 75 104 121 143 164 168 177 183 198 228 245 256 255 241 221 211 231 250 254 247 237 219 246 246 234 242 234 231 227 235 237 237
259 255 276 296 254 230 123 241 122 122 115 117 107 111 107 100 90 98 113 122 134 157 163 167 173 195 235 276 284 276 245 202 194 204 233 233 245 252 232 241 242 244 240 235 231 227 227 236 238
271 318 224 275 100 280 31 293 92 131 141 128 129 121 117 117 110 103 103 110 132 138 146 158 178 195 240 22 359 337 218 153 173 228 233 224 251 243 245 243 239 246 245 242 234 233 234 232 234
201 238 236 184 256 262 158 169 230 102 128 139 114 149 127 118 109 107 105 112 120 115 122 135 205 205 192 172 163 94 164 167 203 239 244 246 251 252 242 236 239 241 242 237 230 236 243 231 235
305 88 256 273 63 336 301 102 75 99 104 130 135 121 90 99 105 104 108 112 117 121 133 174 288 266 229 202 191 196 219 195 203 234 260 261 265 264 258 251 244 240 236 239 233 238 239 235 235